weather.gov     
National Weather Service

Other Surface Observations
NWS Homepage
This page is being discontinued on March 12, 2014.
The same data is available at this site. Please update your bookmarks.
Thank you, and we apologize for the inconvenience.
Please send an email to SR-SRH.Webmaster@noaa.gov with any concerns.


Current Version
Previous Version:    01  02  03  04  05  06  07  08  09  10  11  12  13  14  15  16  17  18  19  20  21  22  23  24  25  26  27  28  29  30  
   31  32  33  34  35  36  37  38  39  40  41  42  43  44  45  46  47  48  49  50  51  52  53  54  55  56  57  58  59  60  
[Printable]
818
SXUS52 KCHS 020425
OSOCHS

MARINE OBSERVATIONS
NATIONAL WEATHER SERVICE CHARLESTON SC
1200 AM EDT TUE SEP 02 2014

...DOWNTOWN CHARLESTON AND HARBOR...

CITY           SKY/WX    TMP DP  RH WIND       PRES   REMARKS
WATERFRONT PRK   N/A     82 N/A N/A S7          N/A
FORT JOHNSON   NOT AVBL

...LAKE MOULTRIE...

CITY           SKY/WX    TMP DP  RH WIND       PRES   REMARKS
PINOPOLIS        N/A     82  75  78 S3        30.02R

...LAKE AND SUPPLEMENTAL COASTAL OBSERVATIONS...

STATION/POSITION TIME  TEMP    WIND        PRES    WAVE   SWELL
                       AIR SEA DIR/SP/G            HT/PER HT/PER/DIR
                 (UTC) (F)     (DEG/KT/KT) (MB)    (FT/S) (FT/S/D)
FORT PULASKI     0400   83     200/  5/  9 1019.4F
SAPELO ISLAND    0400   82     190/  3     1020.0S
UPR LAKE MARION  NOT AVBL
WINYAH BAY       0400   81     210/  3     1018.0S
LAKE MURRAY      0300   82     190/  6/  7 1017.9F
ACE BASIN NERRS  0400   82        CALM     1019.0S


...C-MAN AND BUOY OBSERVATIONS...

STATION/POSITION TIME  TEMP    WIND        PRES    WAVE   SWELL
                       AIR SEA DIR/SP/G            HT/PER HT/PER/DIR
                 (UTC) (F)     (DEG/KT/KT) (MB)    (FT/S) (FT/S/D)
BUOY 41004       0400   83 83  180/ 10/ 12 1018.8S   2/ 8   2/ 8
BUOY 41008       0400   84 85  180/ 12/ 14 1019.5S   2/ 8   2/ 90/ 8
FOLLY BEACH CMAN 0400   83     200/ 11/ 14 1019.4S
CAPERS NS BUOY   0300   83     200/ 12/ 14   N/A
FRIPP NS BUOY    NOT AVBL
5E ST. MARYS GA  0400      85                N/A     2/ 8
FRYING PAN BUOY  NOT AVBL
BUOY 41025       0400   82     210/ 17/ 19 1018.1S   4/11   2/110/11
CAPE LOOKOUT NC  0400   81     210/  9/ 12 1018.5F
BUOY 41002       0319   80 84  200/ 12/ 14 1021.1F   3/11   3/ 70/11
BUOY 41010       0400   83 84  140/  8/  8 1020.2S   3/ 8   2/ 80/ 8
BUOY 41012       NOT AVBL
ST AUGUSTINE FL  0400   81     210/  5/  6 1020.4F


$$




U.S. Dept. of Commerce
NOAA National Weather Service
1325 East West Highway
Silver Spring, MD 20910
E-mail: w-nws.webmaster@noaa.gov
Page last modified: May 16, 2007
NATIONAL WEATHER SERVICE: for Safety, for Work, for Fun - FOR LIFE